Weather History for KJAC - March, 2014

Change the Weather History Date:

Monday, March 3, 2014

  Actual Average Record
Temperature  
Mean Temperature 34 °F -  
Max Temperature 37 °F 35 °F 50 °F (1986)
Min Temperature 32 °F 6 °F -23 °F (2002)
Degree Days  
Heating Degree Days 30    
Moisture  
Dew Point 33 °F    
Average Humidity 94    
Maximum Humidity 100    
Minimum Humidity 75    
Precipitation  
Precipitation 0.08 in - - ()
Sea Level Pressure  
Sea Level Pressure 29.95 in    
Wind  
Wind Speed 11 mph (SSW)    
Max Wind Speed 25 mph    
Max Gust Speed 26 mph    
Visibility 7 miles    
Events Rain , Snow    
Averages and records for this station are not official NWS values.
T = Trace of Precipitation, MM = Missing Value Source: NWS Daily Summary

Daily Weather History Graph

Daily Weather History Graph

Search for Another Location

Airport or City:

Trip Planner

Search our weather history database for the weather conditions in past years. The results will help you decide how hot, cold, wet, or windy it might be!

Date:

Astronomy

Mar. 03, 2014 Rise Set
Actual Time 6:55 AM MST 6:14 PM MST
Civil Twilight 6:27 AM MST 6:43 PM MST
Nautical Twilight 5:54 AM MST 7:16 PM MST
Astronomical Twilight 5:20 AM MST 7:49 PM MST
Moon 8:00 AM MST (3/3) 9:28 PM MST (3/3)
Length of Visible Light 12h 15m
Length of Day
11h 18m
Waxing Crescent, 8% of the Moon is Illuminated
Mar 3
Waxing Crescent
Mar 8
First Quarter
Mar 16
Full
Mar 23
Last Quarter
Mar 30
New

Hourly Weather History & Observations

Time (MST) Temp. Windchill Dew Point Humidity Pressure Visibility Wind Dir Wind Speed Gust Speed Precip Events Conditions
12:15 AM 33.8 °F 25.8 °F 33.8 °F 100% 29.93 in 5.0 mi South 10.4 mph - N/A   Mostly Cloudy
12:35 AM 32.0 °F 24.8 °F 32.0 °F 100% 29.93 in 5.0 mi WSW 8.1 mph - N/A   Overcast
12:55 AM 33.8 °F 27.0 °F 32.0 °F 93% 29.94 in 3.0 mi SSW 8.1 mph - N/A   Overcast
1:15 AM 33.8 °F 27.0 °F 33.8 °F 100% 29.94 in 5.0 mi SW 8.1 mph - 0.01 in   Overcast
1:35 AM 32.0 °F 24.8 °F 32.0 °F 100% 29.94 in 4.0 mi SW 8.1 mph - 0.01 in   Overcast
1:55 AM 32.0 °F 24.8 °F 30.2 °F 93% 29.94 in 10.0 mi SW 8.1 mph - 0.01 in   Overcast
2:15 AM 33.8 °F 26.4 °F 33.8 °F 100% 29.94 in 9.0 mi SSW 9.2 mph - N/A   Overcast
2:35 AM 33.8 °F 23.9 °F 33.8 °F 100% 29.93 in 10.0 mi South 15.0 mph - N/A   Overcast
2:55 AM 33.8 °F 23.9 °F 33.8 °F 100% 29.93 in 8.0 mi South 15.0 mph 19.6 mph N/A   Overcast
3:15 AM 33.8 °F 25.8 °F 33.8 °F 100% 29.93 in 5.0 mi South 10.4 mph - N/A   Overcast
3:35 AM 33.8 °F 25.8 °F 33.8 °F 100% 29.93 in 5.0 mi SSW 10.4 mph - 0.01 in   Overcast
3:55 AM 33.8 °F 27.7 °F 33.8 °F 100% 29.93 in 2.5 mi SW 6.9 mph - 0.02 in   Overcast
4:15 AM 33.8 °F 26.4 °F 33.8 °F 100% 29.93 in 2.5 mi SW 9.2 mph - 0.01 in   Overcast
4:35 AM 33.8 °F 27.7 °F 33.8 °F 100% 29.93 in 5.0 mi SW 6.9 mph - 0.02 in   Overcast
4:55 AM 33.8 °F 24.8 °F 33.8 °F 100% 29.93 in 9.0 mi South 12.7 mph - 0.02 in   Mostly Cloudy
5:15 AM 33.8 °F 29.6 °F 33.8 °F 100% 29.94 in 5.0 mi WSW 4.6 mph - N/A   Overcast
5:35 AM 33.8 °F 26.4 °F 33.8 °F 100% 29.94 in 9.0 mi SSW 9.2 mph - N/A   Mostly Cloudy
5:55 AM 33.8 °F 25.3 °F 33.8 °F 100% 29.95 in 10.0 mi South 11.5 mph - N/A   Overcast
6:15 AM 33.8 °F 25.3 °F 32.0 °F 93% 29.95 in 10.0 mi South 11.5 mph - N/A   Overcast
6:35 AM 35.6 °F 26.6 °F 32.0 °F 87% 29.96 in 10.0 mi South 13.8 mph - N/A   Overcast
6:51 AM 33.8 °F 23.9 °F 30.2 °F 87% 29.96 in 10.0 mi South 15.0 mph - N/A Rain Light Rain
7:54 AM 35.6 °F 25.9 °F 28.4 °F 75% 29.98 in 10.0 mi SSW 16.1 mph 24.2 mph N/A   Overcast
8:51 AM 35.6 °F 27.1 °F 30.2 °F 81% 30.00 in 10.0 mi SSW 12.7 mph - N/A   Overcast
9:51 AM 35.6 °F 26.2 °F 30.2 °F 81% 30.00 in 10.0 mi South 15.0 mph - N/A   Mostly Cloudy
10:51 AM 37.4 °F 26.6 °F 32.0 °F 81% 29.98 in 10.0 mi SSE 21.9 mph 26.5 mph N/A   Mostly Cloudy
11:25 AM 37.4 °F 26.4 °F 30.2 °F 75% 29.99 in 10.0 mi South 23.0 mph - N/A   Overcast
11:51 AM 37.4 °F 25.9 °F 30.2 °F 75% 30.00 in 10.0 mi South 25.3 mph - N/A   Overcast
12:51 PM 37.4 °F 26.9 °F 30.2 °F 75% 29.99 in 10.0 mi South 20.7 mph 26.5 mph N/A   Overcast
1:52 PM 37.4 °F 26.9 °F 30.2 °F 75% 29.98 in 10.0 mi SSE 20.7 mph - N/A   Overcast
2:57 PM 35.6 °F 25.2 °F 32.0 °F 87% 29.98 in 4.0 mi South 18.4 mph - N/A Snow Light Snow
3:55 PM 35.6 °F 27.1 °F 32.0 °F 87% 29.97 in 5.0 mi South 12.7 mph 18.4 mph N/A Snow Light Snow
4:51 PM 35.6 °F 28.6 °F 32.0 °F 87% 29.96 in 10.0 mi South 9.2 mph - N/A   Overcast
5:17 PM 35.6 °F 28.0 °F 33.8 °F 93% 29.97 in 2.0 mi South 10.4 mph 18.4 mph N/A Snow Light Snow
5:55 PM 35.6 °F 28.6 °F 33.8 °F 93% 29.97 in 10.0 mi South 9.2 mph - N/A   Overcast
6:25 PM 35.6 °F 27.5 °F 33.8 °F 93% 29.96 in 3.0 mi South 11.5 mph - N/A Snow Light Snow
6:53 PM 33.8 °F 26.4 °F 33.8 °F 100% 29.96 in 3.0 mi SW 9.2 mph - N/A Snow Light Snow
7:51 PM 33.8 °F 26.4 °F 32.0 °F 93% 29.96 in 2.0 mi SSW 9.2 mph - N/A Snow Light Snow
8:45 PM 33.8 °F 26.4 °F 33.8 °F 100% 29.95 in 10.0 mi SW 9.2 mph - N/A   Overcast
8:55 PM 33.8 °F 27.0 °F 33.8 °F 100% 29.95 in 9.0 mi SW 8.1 mph - 0.01 in   Overcast
9:15 PM 33.8 °F 26.4 °F 33.8 °F 100% 29.94 in 10.0 mi SW 9.2 mph - N/A   Mostly Cloudy
9:35 PM 33.8 °F 26.4 °F 33.8 °F 100% 29.95 in 5.0 mi SW 9.2 mph - N/A   Overcast
9:55 PM 33.8 °F 27.0 °F 33.8 °F 100% 29.95 in 5.0 mi SW 8.1 mph - N/A   Overcast
10:15 PM 33.8 °F 25.3 °F 32.0 °F 93% 29.95 in 4.0 mi SSW 11.5 mph - 0.01 in   Overcast
10:35 PM 33.8 °F 27.0 °F 33.8 °F 100% 29.94 in 5.0 mi SSW 8.1 mph - 0.01 in   Overcast
10:55 PM 33.8 °F 28.6 °F 33.8 °F 100% 29.94 in 5.0 mi SW 5.8 mph - 0.02 in   Overcast
11:15 PM 32.0 °F 25.6 °F 32.0 °F 100% 29.94 in 9.0 mi SW 6.9 mph - N/A   Mostly Cloudy
11:35 PM 33.8 °F 26.4 °F 33.8 °F 100% 29.93 in 10.0 mi SSW 9.2 mph - N/A   Overcast
11:55 PM 33.8 °F 25.3 °F 33.8 °F 100% 29.92 in 10.0 mi South 11.5 mph - N/A   Mostly Cloudy